Location: La Pernelle
(49.6188°N, 1.2999°W)
Time: 10:12:27
(UTC+00:00)

Meteor 2-20 - Pass Details

Date: 31 October 2021
Orbit: 939 x 958 km, 82.5° (Epoch: 08 December)

Event Time Altitude Azimuth Distance (km) Brightness Sun altitude
Rises 04:26:23 0° 176° (S) 3,601 7.5 -24.1°
Reaches altitude 10° 04:28:53 10° 173° (S) 2,658 6.8 -23.7°
Maximum altitude 04:34:51 62° 94° (E) 1,056 4.9 -22.7°
Drops below altitude 10° 04:40:51 10° 16° (NNE) 2,667 7.0 -21.7°
Sets 04:43:21 0° 13° (NNE) 3,615 7.7 -21.3°
